アトラス彗星

C/2018 A3 ( ATLAS )

English version
Home page
Updated on September 23, 2018

---------------------------------------------------------------------

・ プロフィール

発見日 2018年1月10日
発見光度 18.7等
発見者 Asteroid Terrestrial-impact Last Alert System (ATLAS) search program

・ 写真集

・ 軌道要素

Epoch 2018 Dec. 28.0 TT = JDT 2458480.5
T 2019 Jan. 12.86409 TT                                 MPCW
q   3.2767184            (2000.0)            P               Q
z  +0.0020121      Peri.   86.42635     -0.24776744     +0.95551889
 +/-0.0000034      Node   194.27937     +0.40379713     +0.25195622
e   0.9934071      Incl.  139.56174     +0.88065837     +0.15330266
From 669 observations 2018 Jan. 10-July 13, mean residual 0".4.

・ 星図

・ 光度変化

        m1 = 8.0 + 5 logΔ + 10.0 log r

---------------------------------------------------------------------

軌道要素はM.P.E.C. 2018-S50に掲載されたものです。
星図はステラナビゲータ Ver.10 (アストロアーツ) で作成したものです。
光度グラフはComet for Windowsで作成したものです。

---------------------------------------------------------------------

Copyright(C) Seiichi Yoshida (comet@aerith.net). All rights reserved.